Weather Roundup
Issued by NWS

Home | Current Version | Previous Version | Text Only | Print | Product List | Glossary On
Versions: 1 2 3 4 5 6 7 8 9 10 11 12 13 14 15 16 17 18 19 20 21 22 23 24 25 26 27 28 29 30 31 32 33 34 35 36 37 38 39 40 41 42 43 44 45 46 47 48 49 50
000
NZUS93 KARX 221210
HRRWXR

CURRENT HOURLY OBSERVATIONS ACROSS
MUCH OF THE UPPER MISSISSIPPI VALLEY
NATIONAL WEATHER SERVICE LA CROSSE WI
700 AM CDT THU JUN 22 2017


...SOUTHEAST MINNESOTA...


CITY           SKY/WX    TMP DP  RH WIND       PRES   REMARKS
ROCHESTER      CLOUDY    72  64  76 S17G24    29.74R
ROCHESTER/MAYO CLOUDY    73  65  76 S8G17     29.73R
WINONA         CLOUDY    73  64  73 SW13      29.71R
AUSTIN         CLOUDY    72  64  78 S7        29.73R
ALBERT LEA     CLOUDY    73  64  73 S7        29.72R
DODGE CENTER   CLOUDY    72  64  78 S10       29.73R
PRESTON        CLOUDY    71  62  73 S10G21    29.74S
OWATONNA       CLOUDY    70  66  88 CALM      29.73R
FARIBAULT      LGT RAIN  70  66  88 CALM      29.72
$$

...ELSEWHERE IN MINNESOTA...


CITY           SKY/WX    TMP DP  RH WIND       PRES   REMARKS
MINNEAPOLIS    LGT RAIN  69  64  84 N3        29.70R
INTNL FALLS    SUNNY     57  53  86 W7        29.66R
DULUTH         MOSUNNY   60  57  89 NW10      29.70R
RED WING       CLOUDY    72  64  78 CALM      29.70R
REDWOOD FALLS  CLOUDY    69  66  90 E5        29.68S
MANKATO        LGT RAIN  69  68  96 E9        29.70F
WORTHINGTON    CLOUDY    68  67  96 E9        29.70S FOG
FAIRMONT       PTSUNNY   70  65  84 NW3       29.70R
$$

...SOUTHWEST WISCONSIN...


CITY           SKY/WX    TMP DP  RH WIND       PRES   REMARKS
LA CROSSE      CLOUDY    73  69  87 S9        29.71R
PRAIRIE DU CHI LGT RAIN  73  61  66 SW9G20    29.74F
BOSCOBEL       LGT RAIN  69  66  90 CALM      29.75F
LONE ROCK      LGT RAIN  69  67  93 NE9       29.72F FOG
PLATTEVILLE    CLOUDY    73  68  83 S9        29.79F
FORT MC COY    CLOUDY    68  67  98 CALM      29.74S
CAMP DOUGLAS   PTSUNNY   68  68 100 SE5       29.73S
MAUSTON-NEW LI CLOUDY    68  67  96 S5        29.74S FOG
VIROQUA        PTSUNNY   69  66  89 SW12      29.75S
WIS DELLS      CLOUDY    68  66  94 S10G17    29.76F
$$

...ELSEWHERE IN WISCONSIN...


CITY           SKY/WX    TMP DP  RH WIND       PRES   REMARKS
MILWAUKEE      CLOUDY    74  66  76 SW10      29.82R
MADISON        CLOUDY    69  67  93 CALM      29.80R
GREEN BAY      CLOUDY    65  65 100 S9        29.74S
EAU CLAIRE     CLOUDY    66  63  90 CALM      29.71R
BLACK RVR FLS  FAIR      69  69 100 SW3       29.72R
MEDFORD        CLOUDY    64  62  92 SW6       29.74R
WAUSAU         CLOUDY    64  63  96 S5        29.72R
WIS RAPIDS     HVY RAIN  69  67  93 S14G21    29.74R FOG
MARSHFIELD     CLOUDY    66  63  90 SW6       29.72S
RICE LAKE      LGT RAIN  63  60  90 CALM      29.75R
$$

...NORTHEAST IOWA...


CITY           SKY/WX    TMP DP  RH WIND       PRES   REMARKS
WATERLOO       CLOUDY    70  66  87 SE7       29.74F THUNDER
DUBUQUE        FAIR      71  63  75 S9        29.82F
DECORAH        CLOUDY    72  64  78 S10G18    29.74R
MASON CITY     CLOUDY    71  66  84 S13       29.71R
CHARLES CITY   CLOUDY    70  70 100 S12G20    29.73R
OELWEIN        LGT RAIN  68  68 100 SE12      29.78F
$$

...ELSEWHERE IN IOWA...


CITY           SKY/WX    TMP DP  RH WIND       PRES   REMARKS
DES MOINES     PTSUNNY   75  61  61 S13       29.72R
IOWA CITY      MOSUNNY   72  65  78 S6        29.80F
FORT DODGE     FAIR      75  57  53 S15G21    29.67F
MARSHALLTOWN   CLOUDY    74  62  66 VRB5      29.75R
CEDAR RAPIDS   CLOUDY    71  67  87 S9        29.77F
$$

...NORTHERN ILLINOIS...


CITY           SKY/WX    TMP DP  RH WIND       PRES   REMARKS
CHICAGO-OHARE  CLOUDY    77  66  68 SW14      29.85S
CHICAGO-MIDWAY CLOUDY    77  67  71 S12       29.86S
MOLINE         MOSUNNY   74  66  76 CALM      29.82R
ROCKFORD       LGT RAIN  76  66  71 SW7       29.87R
PEORIA         CLOUDY    73  69  87 S12       29.87S
$$

NOTE: "FAIR" INDICATES FEW OR NO CLOUDS BELOW 12,000 FEET WITH NO
SIGNIFICANT WEATHER AND/OR OBSTRUCTIONS TO VISIBILITY. WIND
SPEEDS ARE IN MILES-PER-HOUR.




USA.gov is the U.S. government's official web portal to all federal, state and local government web resources and services.